| time (UTC) | temp F | wind direction | speed knots | gust knots | rain 1hr in | rain 24hr in | rain mn in | humidity % | barometer mb |
| 20260901054404 | 63 | 227 | 0.9 | 0.9 | 0.00 | 0.00 | 0.00 | 99 | 1071.7 |
| 20260901053400 | 63 | 189 | 2.6 | 2.6 | 0.00 | 0.00 | 0.00 | 99 | 1071.7 |
| 20260901052357 | 63 | 256 | 0.0 | 0.0 | 0.00 | 0.00 | 0.00 | 99 | 1071.6 |
| 20260901051357 | 63 | 194 | 1.7 | 1.7 | 0.00 | 0.00 | 0.00 | 99 | 1071.8 |
| 20260901050353 | 63 | 274 | 0.0 | 0.0 | 0.00 | 0.00 | 0.00 | 99 | 1072.0 |
| 20260901045353 | 63 | 273 | 0.9 | 0.9 | 0.00 | 0.00 | 0.00 | 99 | 1072.3 |
| 20260901044351 | 63 | 253 | 0.0 | 0.0 | 0.00 | 0.00 | 0.00 | 99 | 1072.1 |
| 20260901043348 | 63 | 142 | 1.7 | 1.7 | 0.00 | 0.00 | 0.00 | 99 | 1072.2 |
| 20260901042348 | 63 | 194 | 0.9 | 1.7 | 0.00 | 0.00 | 0.00 | 99 | 1071.8 |
| 20260901041345 | 63 | 177 | 0.9 | 0.9 | 0.00 | 0.00 | 0.00 | 99 | 1072.3 |
| 20260901040344 | 63 | 225 | 0.0 | 0.0 | 0.00 | 0.00 | 0.00 | 99 | 1072.0 |
| 20260901035343 | 63 | 226 | 0.9 | 0.9 | 0.00 | 0.01 | 0.01 | 99 | 1072.3 |
| 20260901034342 | 63 | 224 | 0.9 | 0.9 | 0.00 | 0.01 | 0.01 | 99 | 1072.5 |
| 20260901033341 | 63 | 194 | 0.9 | 1.7 | 0.00 | 0.01 | 0.01 | 99 | 1072.1 |
| 20260901032340 | 63 | 162 | 1.7 | 1.7 | 0.00 | 0.01 | 0.01 | 99 | 1072.3 |
| 20260901031337 | 63 | 201 | 1.7 | 1.7 | 0.00 | 0.01 | 0.01 | 99 | 1072.5 |
| 20260901030332 | 63 | 257 | 0.0 | 0.0 | 0.00 | 0.01 | 0.01 | 99 | 1072.5 |
| 20260901025332 | 63 | 235 | 0.9 | 0.9 | 0.00 | 0.01 | 0.01 | 99 | 1072.6 |
| 20260901024332 | 63 | 201 | 0.9 | 0.9 | 0.00 | 0.01 | 0.01 | 99 | 1072.6 |
| 20260901023331 | 63 | 212 | 0.0 | 0.0 | 0.00 | 0.01 | 0.01 | 99 | 1072.6 |
| 20260901022328 | 63 | 221 | 0.9 | 1.7 | 0.00 | 0.01 | 0.01 | 99 | 1072.6 |
| 20260901021325 | 63 | 249 | 0.0 | 0.9 | 0.00 | 0.01 | 0.01 | 99 | 1072.6 |
| 20260901020321 | 63 | 194 | 0.9 | 0.9 | 0.00 | 0.01 | 0.01 | 99 | 1072.8 |
| 20260901015317 | 63 | 261 | 0.0 | 0.0 | 0.00 | 0.01 | 0.01 | 99 | 1072.9 |
| 20260901014312 | 63 | 263 | 0.0 | 0.9 | 0.00 | 0.01 | 0.01 | 99 | 1072.9 |
| 20260901013309 | 63 | 265 | 0.0 | 0.0 | 0.00 | 0.01 | 0.01 | 99 | 1072.8 |
| 20260901012306 | 63 | 268 | 0.0 | 0.0 | 0.00 | 0.01 | 0.01 | 99 | 1073.4 |
| 20260901011301 | 63 | 280 | 0.0 | 0.0 | 0.00 | 0.01 | 0.01 | 99 | 1073.4 |
| 20260901010302 | 63 | 275 | 0.0 | 0.0 | 0.00 | 0.01 | 0.01 | 99 | 1072.9 |
| 20260901005256 | 63 | 275 | 0.0 | 0.0 | 0.00 | 0.01 | 0.01 | 99 | 1072.9 |
| 20260901004251 | 63 | 186 | 0.9 | 0.9 | 0.00 | 0.01 | 0.01 | 99 | 1072.4 |
| 20260901003251 | 63 | 236 | 0.9 | 0.9 | 0.00 | 0.01 | 0.01 | 99 | 1072.8 |
| 20260901002251 | 63 | 257 | 0.0 | 0.0 | 0.00 | 0.01 | 0.01 | 99 | 1072.5 |
| 20260901001248 | 64 | 264 | 0.0 | 0.0 | 0.00 | 0.01 | 0.01 | 99 | 1072.4 |
| 20260901000244 | 64 | 256 | 0.0 | 0.9 | 0.00 | 0.01 | 0.01 | 99 | 1072.3 |
| 20260831235244 | 64 | 249 | 0.0 | 0.9 | 0.00 | 0.01 | 0.01 | 99 | 1072.5 |
| 20260831234243 | 64 | 236 | 0.9 | 0.9 | 0.00 | 0.01 | 0.01 | 99 | 1072.6 |
| 20260831233240 | 64 | 241 | 0.9 | 1.7 | 0.00 | 0.01 | 0.01 | 99 | 1072.5 |
| 20260831232237 | 64 | 193 | 1.7 | 1.7 | 0.00 | 0.01 | 0.01 | 99 | 1072.8 |
| 20260831231235 | 64 | 257 | 0.0 | 0.9 | 0.00 | 0.01 | 0.01 | 99 | 1072.6 |
| 20260831230230 | 65 | 244 | 0.0 | 0.9 | 0.00 | 0.01 | 0.01 | 99 | 1072.8 |
| 20260831225225 | 65 | 237 | 0.9 | 0.9 | 0.00 | 0.01 | 0.01 | 99 | 1073.1 |
| 20260831224221 | 65 | 272 | 0.0 | 0.0 | 0.00 | 0.01 | 0.01 | 99 | 1073.1 |
| 20260831223219 | 65 | 195 | 1.7 | 1.7 | 0.00 | 0.01 | 0.01 | 98 | 1073.1 |
| 20260831222216 | 65 | 260 | 0.0 | 0.0 | 0.00 | 0.01 | 0.01 | 97 | 1073.3 |
| 20260831221212 | 66 | 250 | 0.0 | 0.9 | 0.00 | 0.01 | 0.01 | 96 | 1073.1 |
| 20260831220208 | 66 | 237 | 0.9 | 0.9 | 0.00 | 0.01 | 0.01 | 95 | 1073.4 |
| 20260831215205 | 66 | 245 | 0.9 | 0.9 | 0.00 | 0.01 | 0.01 | 95 | 1073.5 |
| 20260831214204 | 66 | 197 | 1.7 | 1.7 | 0.00 | 0.01 | 0.01 | 95 | 1073.5 |
| 20260831213201 | 66 | 204 | 1.7 | 1.7 | 0.00 | 0.01 | 0.01 | 95 | 1073.5 |
| 20260831212159 | 66 | 254 | 0.0 | 0.9 | 0.00 | 0.01 | 0.01 | 95 | 1073.8 |
| 20260831211159 | 66 | 259 | 0.0 | 0.9 | 0.00 | 0.01 | 0.01 | 95 | 1073.6 |
| 20260831210155 | 66 | 262 | 0.0 | 0.0 | 0.00 | 0.01 | 0.01 | 95 | 1073.8 |
| 20260831205150 | 65 | 237 | 0.0 | 0.0 | 0.00 | 0.01 | 0.01 | 96 | 1073.6 |
| 20260831204149 | 65 | 255 | 0.0 | 0.9 | 0.05 | 0.01 | 0.01 | 98 | 1073.7 |
| 20260831203149 | 66 | 201 | 1.7 | 1.7 | 0.00 | 0.00 | 0.00 | 98 | 1073.9 |
| 20260831202149 | 66 | 274 | 0.9 | 0.9 | 0.00 | 0.00 | 0.00 | 97 | 1073.8 |
| 20260831201148 | 66 | 255 | 0.9 | 0.9 | 0.00 | 0.00 | 0.00 | 97 | 1073.6 |
| 20260831200144 | 66 | 262 | 0.0 | 0.0 | 0.00 | 0.00 | 0.00 | 98 | 1073.8 |
| 20260831195140 | 65 | 266 | 0.0 | 0.0 | 0.00 | 0.00 | 0.00 | 99 | 1073.8 |
| 20260831194137 | 64 | 250 | 0.0 | 0.0 | 0.00 | 0.00 | 0.00 | 99 | 1073.9 |
| 20260831193132 | 64 | 255 | 1.7 | 1.7 | 0.00 | 0.00 | 0.00 | 99 | 1074.1 |
| 20260831192129 | 64 | 272 | 0.9 | 0.9 | 0.00 | 0.00 | 0.00 | 99 | 1074.1 |
| 20260831191126 | 66 | 276 | 1.7 | 1.7 | 0.00 | 0.00 | 0.00 | 96 | 1074.3 |
| 20260831190126 | 68 | 276 | 1.7 | 1.7 | 0.00 | 0.00 | 0.00 | 91 | 1074.5 |
| 20260831185123 | 68 | 272 | 0.9 | 0.9 | 0.00 | 0.00 | 0.00 | 90 | 1074.2 |
| 20260831184119 | 68 | 256 | 0.0 | 0.0 | 0.00 | 0.00 | 0.00 | 89 | 1074.2 |
| 20260831183118 | 68 | 273 | 0.9 | 0.9 | 0.00 | 0.00 | 0.00 | 88 | 1074.5 |
| 20260831182113 | 68 | 269 | 0.9 | 0.9 | 0.00 | 0.00 | 0.00 | 90 | 1074.6 |
| 20260831181113 | 67 | 265 | 0.9 | 0.9 | 0.00 | 0.00 | 0.00 | 91 | 1074.5 |
| 20260831180109 | 67 | 278 | 0.0 | 0.0 | 0.00 | 0.00 | 0.00 | 94 | 1074.6 |
| 20260831175107 | 67 | 258 | 0.0 | 0.9 | 0.00 | 0.00 | 0.00 | 95 | 1074.6 |
| 20260831174107 | 67 | 265 | 2.6 | 2.6 | 0.00 | 0.00 | 0.00 | 92 | 1074.9 |
| 20260831173102 | 68 | 265 | 1.7 | 1.7 | 0.00 | 0.00 | 0.00 | 91 | 1075.0 |
| 20260831172057 | 68 | 275 | 0.9 | 0.9 | 0.00 | 0.00 | 0.00 | 90 | 1075.1 |
| 20260831171055 | 68 | 275 | 4.3 | 4.3 | 0.00 | 0.00 | 0.00 | 89 | 1075.1 |
| 20260831170054 | 68 | 266 | 1.7 | 1.7 | 0.00 | 0.00 | 0.00 | 90 | 1075.1 |
| 20260831165051 | 68 | 252 | 2.6 | 4.3 | 0.00 | 0.00 | 0.00 | 90 | 1074.9 |
| 20260831164048 | 67 | 267 | 0.9 | 1.7 | 0.00 | 0.00 | 0.00 | 90 | 1075.0 |
| 20260831163044 | 68 | 256 | 3.5 | 4.3 | 0.00 | 0.00 | 0.00 | 90 | 1075.1 |
| 20260831162041 | 69 | 275 | 0.9 | 0.9 | 0.00 | 0.00 | 0.00 | 88 | 1075.3 |
| 20260831161040 | 68 | 268 | 0.9 | 0.9 | 0.00 | 0.00 | 0.00 | 87 | 1075.1 |
| 20260831160035 | 68 | 249 | 0.9 | 0.9 | 0.00 | 0.00 | 0.00 | 88 | 1075.3 |
| 20260831155030 | 68 | 205 | 0.9 | 0.9 | 0.00 | 0.00 | 0.00 | 89 | 1075.2 |
| 20260831154026 | 68 | 241 | 0.9 | 0.9 | 0.00 | 0.00 | 0.00 | 90 | 1075.3 |
| 20260831153023 | 68 | 277 | 0.0 | 0.9 | 0.00 | 0.00 | 0.00 | 88 | 1075.2 |
| 20260831152019 | 68 | 200 | 2.6 | 2.6 | 0.00 | 0.00 | 0.00 | 89 | 1075.2 |
| 20260831151019 | 68 | 201 | 1.7 | 1.7 | 0.00 | 0.00 | 0.00 | 91 | 1075.4 |
| 20260831150016 | 67 | 264 | 0.9 | 0.9 | 0.00 | 0.00 | 0.00 | 92 | 1075.4 |
| 20260831145012 | 67 | 257 | 3.5 | 4.3 | 0.00 | 0.00 | 0.00 | 91 | 1075.2 |
| 20260831144009 | 67 | 199 | 2.6 | 2.6 | 0.00 | 0.00 | 0.00 | 92 | 1075.2 |
| 20260831143005 | 66 | 243 | 0.9 | 0.9 | 0.00 | 0.00 | 0.00 | 92 | 1075.3 |
| 20260831142002 | 67 | 232 | 0.9 | 0.9 | 0.00 | 0.00 | 0.00 | 93 | 1075.1 |
| 20260831140956 | 66 | 254 | 0.9 | 0.9 | 0.00 | 0.00 | 0.00 | 93 | 1075.6 |
| 20260831135955 | 66 | 250 | 0.9 | 0.9 | 0.00 | 0.00 | 0.00 | 97 | 1075.4 |
| 20260831134954 | 65 | 196 | 0.9 | 1.7 | 0.00 | 0.00 | 0.00 | 96 | 1075.4 |
| 20260831133951 | 64 | 223 | 0.9 | 0.9 | 0.00 | 0.00 | 0.00 | 99 | 1075.4 |
| 20260831132946 | 64 | 253 | 0.9 | 0.9 | 0.00 | 0.00 | 0.00 | 99 | 1075.4 |
| 20260831131941 | 63 | 210 | 0.9 | 1.7 | 0.00 | 0.00 | 0.00 | 99 | 1075.4 |
| 20260831130938 | 62 | 154 | 1.7 | 1.7 | 0.00 | 0.00 | 0.00 | 99 | 1075.8 |
| 20260831125933 | 62 | 174 | 1.7 | 1.7 | 0.00 | 0.00 | 0.00 | 99 | 1075.6 |
| 20260831124929 | 61 | 259 | 0.0 | 0.0 | 0.00 | 0.00 | 0.00 | 99 | 1076.1 |
| 20260831123926 | 61 | 262 | 0.0 | 0.0 | 0.00 | 0.00 | 0.00 | 99 | 1076.0 |
| 20260831122925 | 61 | 226 | 0.9 | 0.9 | 0.00 | 0.00 | 0.00 | 99 | 1075.9 |
| 20260831121921 | 60 | 266 | 0.0 | 0.0 | 0.00 | 0.00 | 0.00 | 99 | 1076.0 |
| 20260831120919 | 60 | 250 | 0.0 | 0.9 | 0.00 | 0.00 | 0.00 | 99 | 1075.9 |
| 20260831115919 | 60 | 244 | 0.9 | 0.9 | 0.00 | 0.00 | 0.00 | 99 | 1076.1 |
| 20260831114915 | 60 | 243 | 0.9 | 0.9 | 0.00 | 0.00 | 0.00 | 99 | 1076.0 |
| 20260831113910 | 59 | 205 | 0.9 | 0.9 | 0.00 | 0.00 | 0.00 | 99 | 1075.8 |
| 20260831112905 | 59 | 262 | 0.0 | 0.0 | 0.00 | 0.00 | 0.00 | 99 | 1075.7 |
| 20260831111900 | 59 | 261 | 0.9 | 0.9 | 0.00 | 0.00 | 0.00 | 99 | 1075.8 |
| 20260831110858 | 59 | 271 | 0.9 | 0.9 | 0.00 | 0.00 | 0.00 | 99 | 1075.7 |
| 20260831105857 | 59 | 271 | 0.9 | 0.9 | 0.00 | 0.00 | 0.00 | 99 | 1075.2 |
| 20260831104853 | 59 | 91 | 1.7 | 1.7 | 0.00 | 0.00 | 0.00 | 99 | 1075.2 |
| 20260831103849 | 60 | 255 | 0.0 | 0.0 | 0.00 | 0.00 | 0.00 | 99 | 1075.2 |
| 20260831102846 | 59 | 266 | 0.0 | 0.0 | 0.00 | 0.00 | 0.00 | 99 | 1075.2 |
| 20260831101842 | 59 | 264 | 0.0 | 0.0 | 0.00 | 0.00 | 0.00 | 99 | 1075.1 |
| 20260831100839 | 59 | 266 | 0.0 | 0.0 | 0.00 | 0.00 | 0.00 | 99 | 1075.0 |
| 20260831095834 | 59 | 276 | 0.0 | 0.0 | 0.00 | 0.00 | 0.00 | 99 | 1074.9 |
| 20260831094829 | 59 | 270 | 0.0 | 0.0 | 0.00 | 0.00 | 0.00 | 99 | 1074.9 |
| 20260831093826 | 59 | 270 | 0.0 | 0.0 | 0.00 | 0.00 | 0.00 | 99 | 1074.7 |
| 20260831092823 | 60 | 245 | 0.0 | 0.0 | 0.00 | 0.00 | 0.00 | 99 | 1074.9 |
| 20260831091819 | 59 | 268 | 0.0 | 0.0 | 0.00 | 0.00 | 0.00 | 99 | 1074.7 |
| 20260831090816 | 59 | 321 | 0.0 | 0.9 | 0.00 | 0.00 | 0.00 | 99 | 1074.5 |
| 20260831085814 | 59 | 277 | 0.0 | 0.0 | 0.00 | 0.00 | 0.00 | 99 | 1074.4 |
| 20260831084809 | 59 | 283 | 0.0 | 0.0 | 0.00 | 0.00 | 0.00 | 99 | 1074.6 |
| 20260831083807 | 60 | 287 | 0.0 | 0.0 | 0.00 | 0.00 | 0.00 | 99 | 1074.4 |
| 20260831082807 | 60 | 288 | 0.0 | 0.0 | 0.00 | 0.00 | 0.00 | 99 | 1074.6 |
| 20260831081803 | 61 | 303 | 0.0 | 0.0 | 0.00 | 0.00 | 0.00 | 99 | 1074.7 |
| 20260831080800 | 62 | 87 | 0.9 | 1.7 | 0.00 | 0.00 | 0.00 | 99 | 1074.7 |
| 20260831075757 | 61 | 272 | 0.0 | 0.0 | 0.00 | 0.00 | 0.00 | 99 | 1074.7 |
| 20260831074758 | 61 | 277 | 0.0 | 0.0 | 0.00 | 0.00 | 0.00 | 99 | 1074.7 |
| 20260831073753 | 61 | 271 | 0.0 | 0.0 | 0.00 | 0.00 | 0.00 | 99 | 1074.6 |
| 20260831072752 | 61 | 277 | 0.0 | 0.0 | 0.00 | 0.00 | 0.00 | 99 | 1075.0 |
| 20260831071749 | 61 | 278 | 0.0 | 0.0 | 0.00 | 0.00 | 0.00 | 99 | 1074.8 |
| 20260831070744 | 61 | 277 | 0.0 | 0.0 | 0.00 | 0.00 | 0.00 | 99 | 1074.8 |
| 20260831065742 | 61 | 277 | 0.0 | 0.0 | 0.00 | 0.00 | 0.00 | 99 | 1074.7 |
| 20260831064742 | 61 | 277 | 0.0 | 0.0 | 0.00 | 0.00 | 0.00 | 99 | 1074.8 |
| 20260831063739 | 61 | 278 | 0.0 | 0.0 | 0.00 | 0.00 | 0.00 | 99 | 1074.6 |
| 20260831062739 | 61 | 277 | 0.0 | 0.0 | 0.00 | 0.00 | 0.00 | 99 | 1074.6 |
| 20260831061738 | 61 | 277 | 0.0 | 0.0 | 0.00 | 0.00 | 0.00 | 99 | 1074.9 |
| 20260831060736 | 61 | 277 | 0.0 | 0.0 | 0.00 | 0.00 | 0.00 | 99 | 1075.0 |
| 20260831055735 | 61 | 269 | 0.0 | 0.0 | 0.00 | 0.00 | 0.00 | 99 | 1075.1 |